This is the latest recevied weather packets stored in our database for station/object KI5RAB. If no packets are shown the sender has not sent any weather packets the latest 10 day(s).
| Time | Temp. | Humidity | Pressure | Rain* | Wind** | Luminosity | Snow |
|---|---|---|---|---|---|---|---|
| 1788122127 | 35° C | 47% | 1017.4 hPa | 0 mm | - | 574 W/m² | - |
| 1788121816 | 35.56° C | 46% | 1017.5 hPa | 0 mm | - | 634 W/m² | - |
| 1788121515 | 35.56° C | 52% | 1017.9 hPa | 0 mm | - | 232 W/m² | - |
| 1788121212 | 35.56° C | 50% | 1017.8 hPa | 0 mm | - | 542 W/m² | - |
| 1788120914 | 35.56° C | 49% | 1017.8 hPa | 0 mm | - | 679 W/m² | - |
| 1788120606 | 36.67° C | 47% | 1017.8 hPa | 0 mm | - | 133 W/m² | - |
| 1788120301 | 36.67° C | 46% | 1017.9 hPa | 0 mm | - | 707 W/m² | - |
| 1788120000 | 36.11° C | 48% | 1017.7 hPa | 0 mm | - | 709 W/m² | - |
| 1788119696 | 36.11° C | 47% | 1018.1 hPa | 0 mm | - | 730 W/m² | - |
| 1788119394 | 36.11° C | 48% | 1018.3 hPa | 0 mm | - | 467 W/m² | - |
| 1788119093 | 35° C | 50% | 1018.5 hPa | 0 mm | - | 737 W/m² | - |
| 1788118788 | 35° C | 49% | 1018.3 hPa | 0 mm | - | 734 W/m² | - |
| 1788118487 | 36.11° C | 46% | 1018.2 hPa | 0 mm | - | 147 W/m² | - |
| 1788118183 | 35.56° C | 49% | 1018.5 hPa | 0 mm | - | 737 W/m² | - |
| 1788117878 | 35° C | 49% | 1018.5 hPa | 0 mm | - | 738 W/m² | - |
| 1788117572 | 34.44° C | 51% | 1018.7 hPa | 0 mm | - | 778 W/m² | - |
| 1788117266 | 34.44° C | 52% | 1018.7 hPa | 0 mm | - | 551 W/m² | - |
| 1788116957 | 35.56° C | 49% | 1018.9 hPa | 0 mm | - | 780 W/m² | - |
| 1788116652 | 35.56° C | 50% | 1018.7 hPa | 0 mm | - | 764 W/m² | - |
| 1788116351 | 35.56° C | 50% | 1018.9 hPa | 0 mm | - | 798 W/m² | - |
| 1788116046 | 35° C | 51% | 1019.3 hPa | 0 mm | - | 790 W/m² | - |
| 1788115741 | 33.89° C | 53% | 1019.3 hPa | 0 mm | - | 183 W/m² | - |
| 1788115440 | 33.89° C | 56% | 1019.5 hPa | 0 mm | - | 723 W/m² | - |
| 1788115139 | 34.44° C | 54% | 1019.5 hPa | 0 mm | - | 180 W/m² | - |
| 1788114834 | 34.44° C | 53% | 1019.6 hPa | 0 mm | - | 204 W/m² | - |
* Rain latest hour (hover to see other rain measurements)
** Current wind speed in m/s (hover to see current wind gust speed)